Location: Ailly
(50.0793°N, 1.9944°E)
Time: 21:53:21
(UTC+00:00)

GEOS 3 Rocket - Pass Details

Date: 15 January 2026
Orbit: 768 x 845 km, 115.0° (Epoch: 17 February)

Event Time Altitude Azimuth Distance (km) Brightness Sun altitude
Rises 06:09:29 0° 163° (SSE) 3,299 7.3 -14.8°
Reaches altitude 10° 06:11:55 10° 171° (S) 2,385 6.4 -14.4°
Maximum altitude 06:16:42 37° 238° (WSW) 1,255 4.3 -13.7°
Enters shadow 06:20:06 18° 296° (WNW) 1,926 4.9 -13.1°
